TRA97Q EHAM-LPPT

Flight info

Callsign TRA97Q
Flight time N/A
Altitude 32000
Route WOODY N872 CIV DCT MEDIL DCT KOVIN DCT NIDUV DCT KIHVI UN872 ERIGA UZ218 FUJTI DCT BAKUP DCT BATAX DCT INBOM
Aircraft A321/M-SDE3FGHIRWY/LB1

Departure

Time 2026-04-18 11:45
Airport Amsterdam Airport Schiphol (EHAM)

Arrival

Time N/A
Airport Lisbon Humberto Delgado Airport (LPPT)
Time Latitude Longitude Altitude Speed Heading
2026-04-18 11:29 52.30429 4.76604 -1 ft 0 kts 58°
2026-04-18 11:36 52.30420 4.76579 -1 ft 4 kts 70°
2026-04-18 11:36 52.30418 4.76541 -1 ft 4 kts 121°
2026-04-18 11:37 52.30423 4.76528 -1 ft 0 kts 135°
2026-04-18 11:39 52.30423 4.76529 -1 ft 0 kts 135°
2026-04-18 11:40 52.30412 4.76538 -1 ft 3 kts 152°
2026-04-18 11:40 52.30386 4.76563 -1 ft 6 kts 150°
2026-04-18 11:40 52.30353 4.76611 -1 ft 7 kts 118°
2026-04-18 11:40 52.30341 4.76700 -1 ft 9 kts 116°
2026-04-18 11:41 52.30307 4.76780 -1 ft 7 kts 97°
2026-04-18 11:41 52.30329 4.76865 -1 ft 9 kts 59°
2026-04-18 11:41 52.30367 4.76966 -1 ft 12 kts 58°
2026-04-18 11:41 52.30393 4.77036 -1 ft 9 kts 59°
2026-04-18 11:42 52.30424 4.77118 -1 ft 9 kts 57°
2026-04-18 11:42 52.30460 4.77209 -1 ft 10 kts 58°
2026-04-18 11:42 52.30499 4.77310 -1 ft 9 kts 58°
2026-04-18 11:42 52.30532 4.77393 -1 ft 11 kts 58°
2026-04-18 11:43 52.30567 4.77527 -1 ft 9 kts 121°
2026-04-18 11:43 52.30510 4.77591 -1 ft 11 kts 150°
2026-04-18 11:43 52.30447 4.77645 -1 ft 9 kts 154°
2026-04-18 11:43 52.30401 4.77604 -2 ft 5 kts 238°
2026-04-18 11:44 52.30340 4.77441 -2 ft 43 kts 238°
2026-04-18 11:44 52.30057 4.76705 -2 ft 107 kts 238°
2026-04-18 11:44 52.29569 4.75437 -1 ft 154 kts 237°
2026-04-18 11:44 52.28954 4.73857 370 ft 164 kts 240°
2026-04-18 11:45 52.28341 4.72309 1054 ft 165 kts 239°
2026-04-18 11:45 52.27694 4.70620 1327 ft 186 kts 240°
2026-04-18 11:45 52.26900 4.68797 1568 ft 211 kts 225°
2026-04-18 11:45 52.25586 4.67610 2220 ft 222 kts 196°
2026-04-18 11:46 52.24030 4.67618 3012 ft 230 kts 167°
2026-04-18 11:46 52.22581 4.68882 3618 ft 249 kts 149°
2026-04-18 11:46 52.21002 4.70173 4070 ft 258 kts 172°
2026-04-18 11:46 52.19223 4.70627 4849 ft 260 kts 176°
2026-04-18 11:47 52.17416 4.71044 5656 ft 263 kts 176°
2026-04-18 11:47 52.15613 4.71460 6484 ft 267 kts 177°
2026-04-18 11:47 52.13736 4.71889 7275 ft 270 kts 177°
2026-04-18 11:47 52.11876 4.72310 8071 ft 271 kts 177°
2026-04-18 11:48 52.10000 4.72734 8865 ft 273 kts 177°
2026-04-18 11:48 52.08114 4.73162 9671 ft 274 kts 178°
2026-04-18 11:48 52.06245 4.73587 10407 ft 277 kts 178°
2026-04-18 11:48 52.04256 4.74031 10600 ft 300 kts 177°
2026-04-18 11:49 52.02102 4.74506 10729 ft 323 kts 177°
2026-04-18 11:49 51.99798 4.74982 10844 ft 343 kts 180°
2026-04-18 11:49 51.97422 4.74569 11226 ft 345 kts 200°
2026-04-18 11:49 51.95180 4.73164 11817 ft 347 kts 205°
2026-04-18 11:50 51.92929 4.71656 12428 ft 351 kts 206°
2026-04-18 11:50 51.90660 4.70118 13069 ft 355 kts 206°
2026-04-18 11:50 51.88367 4.68560 13710 ft 359 kts 206°
2026-04-18 11:50 51.86056 4.66995 14303 ft 362 kts 206°
2026-04-18 11:51 51.83720 4.65419 14859 ft 365 kts 206°
2026-04-18 11:51 51.81366 4.63836 15412 ft 368 kts 206°
2026-04-18 11:51 51.78995 4.62241 15958 ft 371 kts 206°
2026-04-18 11:51 51.76603 4.60634 16499 ft 374 kts 206°
2026-04-18 11:52 51.74192 4.59020 17038 ft 376 kts 206°
2026-04-18 11:52 51.71764 4.57391 17546 ft 379 kts 206°
2026-04-18 11:52 51.69321 4.55752 18084 ft 382 kts 206°
2026-04-18 11:52 51.66856 4.54101 18591 ft 385 kts 206°
2026-04-18 11:53 51.64372 4.52442 19034 ft 388 kts 206°
2026-04-18 11:53 51.61874 4.50779 19498 ft 390 kts 206°
2026-04-18 11:53 51.59360 4.49107 19964 ft 392 kts 206°
2026-04-18 11:53 51.56834 4.47423 20435 ft 394 kts 206°
2026-04-18 11:54 51.54290 4.45730 20977 ft 396 kts 206°
2026-04-18 11:54 51.51735 4.44036 21467 ft 398 kts 206°
2026-04-18 11:54 51.49199 4.42358 21923 ft 400 kts 206°
2026-04-18 11:54 51.46621 4.40653 22380 ft 402 kts 206°
2026-04-18 11:55 51.44028 4.38940 22840 ft 404 kts 206°
2026-04-18 11:55 51.41425 4.37220 23269 ft 406 kts 206°
2026-04-18 11:55 51.38825 4.35447 23714 ft 407 kts 208°
2026-04-18 11:55 51.36250 4.33549 24083 ft 408 kts 209°
2026-04-18 11:56 51.33690 4.31576 24474 ft 409 kts 210°
2026-04-18 11:56 51.31129 4.29573 24879 ft 410 kts 210°
2026-04-18 11:56 51.28567 4.27570 25257 ft 411 kts 210°
2026-04-18 11:56 51.25993 4.25572 25627 ft 412 kts 210°
2026-04-18 11:57 51.23408 4.23589 25974 ft 413 kts 210°
2026-04-18 11:57 51.20810 4.21621 26342 ft 414 kts 210°
2026-04-18 11:57 51.18202 4.19655 26704 ft 415 kts 210°
2026-04-18 11:57 51.15536 4.17842 27056 ft 420 kts 204°
2026-04-18 11:58 51.12763 4.16334 27390 ft 422 kts 204°
2026-04-18 11:58 51.09989 4.14820 27743 ft 422 kts 204°
2026-04-18 11:58 51.07218 4.13305 28213 ft 419 kts 204°
2026-04-18 11:58 51.04469 4.11802 28685 ft 417 kts 204°
2026-04-18 11:59 51.01732 4.10303 29157 ft 415 kts 205°
2026-04-18 11:59 50.99012 4.08812 29636 ft 412 kts 205°
2026-04-18 11:59 50.96311 4.07336 30089 ft 410 kts 205°
2026-04-18 11:59 50.93617 4.05869 30508 ft 408 kts 205°
2026-04-18 12:00 50.90937 4.04412 30860 ft 407 kts 205°
2026-04-18 12:00 50.88261 4.02956 31197 ft 406 kts 205°
2026-04-18 12:00 50.85611 4.01431 31542 ft 404 kts 206°
2026-04-18 12:00 50.83000 3.99796 31874 ft 403 kts 207°
2026-04-18 12:01 50.77830 3.96383 32444 ft 403 kts 208°
2026-04-18 12:01 50.75240 3.94668 32763 ft 404 kts 208°
2026-04-18 12:01 50.72647 3.92981 33105 ft 403 kts 207°
2026-04-18 12:02 50.70049 3.91314 33229 ft 402 kts 207°
2026-04-18 12:02 50.64885 3.88037 33239 ft 399 kts 207°
2026-04-18 12:03 50.59737 3.84767 33242 ft 399 kts 207°
2026-04-18 12:03 50.54598 3.81462 33243 ft 399 kts 208°
2026-04-18 12:04 50.49506 3.77972 33239 ft 399 kts 209°
2026-04-18 12:04 50.44462 3.74475 33236 ft 399 kts 209°
2026-04-18 12:05 50.39372 3.70991 33239 ft 399 kts 209°
2026-04-18 12:05 50.34272 3.67537 33235 ft 399 kts 209°
2026-04-18 12:06 50.29174 3.64092 33230 ft 399 kts 209°
2026-04-18 12:06 50.24073 3.60648 33224 ft 399 kts 209°
2026-04-18 12:07 50.18973 3.57213 33226 ft 399 kts 209°
2026-04-18 12:07 50.13870 3.53781 33188 ft 399 kts 209°
2026-04-18 12:08 50.08749 3.50355 33206 ft 401 kts 209°
2026-04-18 12:08 50.03615 3.46932 33212 ft 402 kts 209°
2026-04-18 12:09 49.98484 3.43501 33218 ft 402 kts 209°
2026-04-18 12:09 49.93345 3.40085 33218 ft 402 kts 209°
2026-04-18 12:10 49.88204 3.36676 33192 ft 402 kts 209°
2026-04-18 12:10 49.83055 3.33260 33198 ft 403 kts 209°
2026-04-18 12:11 49.77893 3.29855 33204 ft 403 kts 209°
2026-04-18 12:11 49.72731 3.26452 33203 ft 403 kts 209°
2026-04-18 12:12 49.67590 3.23068 33201 ft 405 kts 208°
2026-04-18 12:12 49.62387 3.19651 33207 ft 406 kts 208°
2026-04-18 12:13 49.57182 3.16250 33211 ft 406 kts 208°
2026-04-18 12:13 49.52017 3.12743 33234 ft 402 kts 214°
2026-04-18 12:13 49.49742 3.10320 33322 ft 395 kts 226°
2026-04-18 12:14 49.47839 3.07301 33640 ft 391 kts 233°
2026-04-18 12:14 49.46216 3.03963 33965 ft 389 kts 239°
2026-04-18 12:14 49.44838 3.00389 34296 ft 388 kts 242°
2026-04-18 12:14 49.43502 2.96792 34579 ft 388 kts 242°
2026-04-18 12:15 49.42151 2.93206 34829 ft 388 kts 241°
2026-04-18 12:15 49.40798 2.89618 35074 ft 388 kts 241°
2026-04-18 12:15 49.39444 2.86020 35189 ft 390 kts 241°
2026-04-18 12:16 49.36737 2.78800 35214 ft 390 kts 241°
2026-04-18 12:16 49.34047 2.71586 35215 ft 390 kts 242°
2026-04-18 12:17 49.31479 2.64337 35215 ft 389 kts 243°
2026-04-18 12:17 49.28935 2.56985 35212 ft 388 kts 243°
2026-04-18 12:18 49.26404 2.49743 35200 ft 388 kts 243°
2026-04-18 12:18 49.23835 2.42468 35204 ft 389 kts 242°
2026-04-18 12:19 49.21243 2.35212 35191 ft 388 kts 242°
2026-04-18 12:19 49.18641 2.27962 35193 ft 389 kts 242°
2026-04-18 12:20 49.15991 2.20754 35209 ft 389 kts 241°
2026-04-18 12:20 49.13319 2.13576 35207 ft 388 kts 241°
2026-04-18 12:21 49.10652 2.06412 35207 ft 388 kts 241°
2026-04-18 12:21 49.08253 1.99062 35205 ft 387 kts 246°
2026-04-18 12:22 49.06014 1.91595 35168 ft 387 kts 246°
2026-04-18 12:22 49.03780 1.84179 35203 ft 388 kts 245°
2026-04-18 12:23 49.01524 1.76711 35207 ft 388 kts 245°
2026-04-18 12:23 48.99254 1.69252 35233 ft 388 kts 245°
2026-04-18 12:24 48.96997 1.61808 35235 ft 387 kts 245°
2026-04-18 12:24 48.94732 1.54375 35240 ft 387 kts 245°
2026-04-18 12:25 48.92465 1.46954 35241 ft 387 kts 245°
2026-04-18 12:25 48.90193 1.39544 35242 ft 387 kts 245°
2026-04-18 12:26 48.87911 1.32136 35243 ft 387 kts 245°
2026-04-18 12:26 48.86007 1.25985 35259 ft 386 kts 245°
2026-04-18 12:27 48.83345 1.17405 35258 ft 386 kts 245°
2026-04-18 12:27 48.81436 1.11220 35250 ft 386 kts 245°
2026-04-18 12:28 48.79149 1.03854 35251 ft 386 kts 245°
2026-04-18 12:28 48.76862 0.96552 35247 ft 386 kts 245°
2026-04-18 12:29 48.74548 0.89216 35241 ft 386 kts 242°
2026-04-18 12:29 48.71778 0.82256 35260 ft 386 kts 239°
2026-04-18 12:30 48.68975 0.75327 35252 ft 386 kts 239°
2026-04-18 12:30 48.66173 0.68408 35256 ft 385 kts 239°
2026-04-18 12:31 48.63363 0.61497 35221 ft 385 kts 239°
2026-04-18 12:31 48.60547 0.54603 35227 ft 386 kts 239°
2026-04-18 12:32 48.57726 0.47710 35241 ft 386 kts 239°
2026-04-18 12:32 48.54902 0.40826 35258 ft 386 kts 239°
2026-04-18 12:33 48.52076 0.33949 35263 ft 385 kts 239°
2026-04-18 12:33 48.49243 0.27076 35263 ft 385 kts 239°
2026-04-18 12:34 48.46415 0.20217 35256 ft 385 kts 239°
2026-04-18 12:34 48.43599 0.13407 35238 ft 385 kts 239°
2026-04-18 12:35 48.40753 0.06573 35243 ft 385 kts 239°
2026-04-18 12:35 48.37901 -0.00258 35246 ft 386 kts 239°
2026-04-18 12:36 48.34995 -0.07034 35261 ft 386 kts 236°
2026-04-18 12:36 48.31799 -0.13528 35260 ft 386 kts 234°
2026-04-18 12:37 48.28523 -0.19921 35254 ft 386 kts 234°
2026-04-18 12:37 48.25277 -0.26345 35256 ft 386 kts 234°
2026-04-18 12:38 48.22025 -0.32765 35222 ft 386 kts 234°
2026-04-18 12:38 48.18748 -0.39158 35231 ft 387 kts 234°
2026-04-18 12:39 48.15488 -0.45517 35233 ft 387 kts 234°
2026-04-18 12:39 48.12199 -0.51924 35237 ft 388 kts 234°
2026-04-18 12:40 48.08910 -0.58328 35242 ft 388 kts 234°
2026-04-18 12:40 48.05615 -0.64720 35245 ft 388 kts 234°
2026-04-18 12:41 48.02313 -0.71109 35249 ft 388 kts 234°
2026-04-18 12:41 47.99027 -0.77450 35229 ft 389 kts 234°
2026-04-18 12:42 47.95715 -0.83835 35236 ft 389 kts 234°
2026-04-18 12:42 47.92392 -0.90218 35255 ft 389 kts 233°
2026-04-18 12:43 47.89059 -0.96591 35262 ft 389 kts 233°
2026-04-18 12:43 47.85732 -1.02954 35269 ft 389 kts 233°
2026-04-18 12:44 47.82410 -1.09312 35270 ft 389 kts 233°
2026-04-18 12:44 47.79079 -1.15663 35237 ft 389 kts 233°
2026-04-18 12:45 47.75736 -1.22011 35244 ft 390 kts 233°
2026-04-18 12:45 47.72381 -1.28360 35261 ft 391 kts 233°
2026-04-18 12:46 47.69017 -1.34711 35267 ft 391 kts 233°
2026-04-18 12:46 47.65653 -1.41058 35273 ft 391 kts 233°
2026-04-18 12:47 47.62283 -1.47396 35269 ft 391 kts 233°
2026-04-18 12:47 47.58879 -1.53699 35272 ft 392 kts 231°
2026-04-18 12:48 47.55249 -1.59745 35253 ft 393 kts 229°
2026-04-18 12:48 47.51540 -1.65688 35260 ft 394 kts 229°
2026-04-18 12:49 47.47876 -1.71636 35272 ft 394 kts 229°
2026-04-18 12:49 47.44263 -1.77569 35269 ft 394 kts 230°
2026-04-18 12:50 47.40600 -1.83581 35270 ft 394 kts 230°
2026-04-18 12:50 47.36926 -1.89580 35265 ft 394 kts 230°
2026-04-18 12:51 47.32750 -1.94838 35256 ft 399 kts 214°
2026-04-18 12:51 47.27990 -1.99069 35264 ft 400 kts 214°
2026-04-18 12:52 47.23230 -2.03322 35262 ft 400 kts 215°
2026-04-18 12:52 47.18466 -2.07572 35280 ft 401 kts 214°
2026-04-18 12:53 47.13730 -2.11796 35257 ft 401 kts 214°
2026-04-18 12:53 47.08955 -2.16043 35259 ft 401 kts 214°
2026-04-18 12:54 47.04172 -2.20279 35267 ft 401 kts 214°
2026-04-18 12:54 46.99379 -2.24515 35273 ft 402 kts 214°
2026-04-18 12:55 46.94595 -2.28736 35270 ft 402 kts 214°
2026-04-18 12:55 46.89805 -2.32948 35272 ft 402 kts 214°
2026-04-18 12:56 46.85013 -2.37166 35278 ft 402 kts 214°
2026-04-18 12:56 46.80224 -2.41380 35281 ft 402 kts 214°
2026-04-18 12:57 46.75427 -2.45581 35303 ft 402 kts 214°
2026-04-18 12:57 46.70632 -2.49771 35302 ft 402 kts 214°
2026-04-18 12:58 46.65834 -2.53958 35299 ft 402 kts 214°
2026-04-18 12:58 46.61065 -2.58114 35300 ft 402 kts 214°
2026-04-18 12:59 46.56271 -2.62287 35310 ft 402 kts 214°
2026-04-18 12:59 46.51471 -2.66446 35282 ft 402 kts 214°
2026-04-18 13:00 46.46668 -2.70610 35284 ft 402 kts 214°
2026-04-18 13:00 46.41865 -2.74767 35294 ft 402 kts 214°
2026-04-18 13:01 46.37048 -2.78918 35296 ft 402 kts 214°
2026-04-18 13:01 46.32228 -2.83049 35290 ft 403 kts 214°
2026-04-18 13:02 46.27401 -2.87180 35290 ft 403 kts 214°
2026-04-18 13:02 46.22590 -2.91337 35293 ft 403 kts 214°
2026-04-18 13:03 46.17796 -2.95540 35292 ft 403 kts 214°
2026-04-18 13:03 46.10586 -3.01828 35273 ft 403 kts 214°
2026-04-18 13:04 46.05774 -3.05996 35286 ft 404 kts 214°
2026-04-18 13:04 46.00966 -3.10164 35291 ft 404 kts 214°
2026-04-18 13:05 45.96183 -3.14293 35289 ft 404 kts 214°
2026-04-18 13:05 45.91359 -3.18439 35278 ft 404 kts 214°
2026-04-18 13:06 45.86517 -3.22593 35277 ft 405 kts 214°
2026-04-18 13:06 45.81669 -3.26755 35278 ft 406 kts 214°
2026-04-18 13:07 45.76811 -3.30909 35281 ft 407 kts 214°
2026-04-18 13:07 45.71975 -3.35025 35263 ft 407 kts 214°
2026-04-18 13:08 45.67113 -3.39172 35268 ft 407 kts 214°
2026-04-18 13:08 45.62248 -3.43323 35274 ft 407 kts 214°
2026-04-18 13:09 45.57373 -3.47464 35282 ft 408 kts 214°
2026-04-18 13:09 45.52494 -3.51587 35291 ft 408 kts 215°
2026-04-18 13:10 45.47608 -3.55710 35279 ft 408 kts 215°
2026-04-18 13:10 45.42734 -3.59842 35285 ft 407 kts 215°
2026-04-18 13:11 45.37852 -3.63956 35292 ft 408 kts 215°
2026-04-18 13:11 45.32958 -3.68054 35294 ft 408 kts 215°
2026-04-18 13:12 45.28071 -3.72153 35273 ft 408 kts 216°
2026-04-18 13:12 45.23212 -3.76221 35281 ft 407 kts 216°
2026-04-18 13:13 45.18330 -3.80303 35295 ft 407 kts 216°
2026-04-18 13:13 45.13446 -3.84368 35293 ft 407 kts 216°
2026-04-18 13:14 45.08570 -3.88425 35288 ft 406 kts 216°
2026-04-18 13:14 45.03695 -3.92472 35290 ft 406 kts 216°
2026-04-18 13:15 44.99644 -3.95826 35289 ft 406 kts 216°
2026-04-18 13:15 44.93985 -4.00514 35293 ft 405 kts 216°
2026-04-18 13:16 44.89906 -4.03881 35266 ft 405 kts 216°
2026-04-18 13:16 44.85031 -4.07894 35270 ft 406 kts 216°
2026-04-18 13:17 44.80156 -4.11910 35277 ft 406 kts 216°
2026-04-18 13:17 44.75307 -4.15884 35280 ft 406 kts 216°
2026-04-18 13:18 44.70421 -4.19872 35285 ft 406 kts 216°
2026-04-18 13:18 44.65536 -4.23867 35286 ft 406 kts 216°
2026-04-18 13:19 44.60651 -4.27855 35285 ft 406 kts 216°
2026-04-18 13:19 44.55767 -4.31834 35283 ft 406 kts 216°
2026-04-18 13:20 44.50881 -4.35794 35258 ft 406 kts 216°
2026-04-18 13:20 44.45988 -4.39761 35263 ft 406 kts 216°
2026-04-18 13:21 44.41090 -4.43720 35264 ft 407 kts 216°
2026-04-18 13:21 44.36233 -4.47759 35271 ft 406 kts 217°
2026-04-18 13:22 44.31421 -4.51894 35256 ft 406 kts 217°
2026-04-18 13:22 44.26600 -4.56019 35261 ft 407 kts 217°
2026-04-18 13:23 44.21794 -4.60083 35268 ft 407 kts 216°
2026-04-18 13:23 44.16943 -4.64155 35263 ft 407 kts 216°
2026-04-18 13:24 44.12095 -4.68224 35243 ft 407 kts 216°
2026-04-18 13:24 44.07246 -4.72296 35240 ft 407 kts 216°
2026-04-18 13:25 44.02379 -4.76372 35247 ft 408 kts 216°
2026-04-18 13:25 43.97541 -4.80400 35245 ft 408 kts 216°
2026-04-18 13:26 43.92678 -4.84457 35246 ft 408 kts 216°
2026-04-18 13:26 43.87807 -4.88514 35231 ft 408 kts 216°
2026-04-18 13:27 43.82932 -4.92565 35239 ft 409 kts 216°
2026-04-18 13:27 43.78052 -4.96612 35249 ft 409 kts 216°
2026-04-18 13:28 43.73168 -5.00656 35244 ft 409 kts 216°
2026-04-18 13:28 43.68274 -5.04693 35216 ft 410 kts 216°
2026-04-18 13:29 43.63362 -5.08731 35232 ft 412 kts 216°
2026-04-18 13:29 43.58433 -5.12783 35235 ft 412 kts 216°
2026-04-18 13:30 43.53503 -5.16837 35235 ft 413 kts 216°
2026-04-18 13:30 43.48563 -5.20890 35220 ft 414 kts 216°
2026-04-18 13:31 43.43645 -5.24917 35216 ft 414 kts 216°
2026-04-18 13:31 43.38680 -5.28973 35208 ft 415 kts 216°
2026-04-18 13:32 43.33704 -5.33026 35218 ft 416 kts 216°
2026-04-18 13:32 43.28719 -5.37071 35185 ft 416 kts 215°
2026-04-18 13:33 43.23733 -5.41115 35190 ft 417 kts 215°
2026-04-18 13:33 43.18736 -5.45165 35182 ft 417 kts 215°
2026-04-18 13:34 43.13736 -5.49210 35175 ft 417 kts 215°
2026-04-18 13:34 43.08734 -5.53250 35171 ft 417 kts 215°
2026-04-18 13:35 43.03725 -5.57287 35149 ft 418 kts 215°
2026-04-18 13:35 42.98701 -5.61322 35156 ft 419 kts 215°
2026-04-18 13:36 42.93709 -5.65324 35145 ft 419 kts 215°
2026-04-18 13:36 42.88677 -5.69352 35155 ft 419 kts 215°
2026-04-18 13:37 42.83640 -5.73381 35141 ft 421 kts 215°
2026-04-18 13:37 42.78583 -5.77419 35151 ft 421 kts 215°
2026-04-18 13:38 42.73524 -5.81451 35160 ft 421 kts 215°
2026-04-18 13:38 42.68458 -5.85479 35164 ft 422 kts 215°
2026-04-18 13:39 42.63391 -5.89496 35167 ft 422 kts 214°
2026-04-18 13:39 42.58315 -5.93502 35166 ft 422 kts 214°
2026-04-18 13:40 42.53237 -5.97506 35154 ft 422 kts 214°
2026-04-18 13:40 42.48166 -6.01522 35146 ft 422 kts 214°
2026-04-18 13:41 42.43081 -6.05530 35121 ft 423 kts 214°
2026-04-18 13:41 42.38025 -6.09503 35114 ft 423 kts 214°
2026-04-18 13:42 42.32926 -6.13507 35117 ft 423 kts 214°
2026-04-18 13:42 42.27826 -6.17491 35125 ft 423 kts 214°
2026-04-18 13:43 42.22725 -6.21471 35100 ft 423 kts 214°
2026-04-18 13:43 42.17618 -6.25453 35098 ft 424 kts 214°
2026-04-18 13:44 42.12506 -6.29438 35100 ft 425 kts 214°
2026-04-18 13:44 42.07378 -6.33415 35105 ft 425 kts 214°
2026-04-18 13:45 42.02278 -6.37371 35104 ft 426 kts 214°
2026-04-18 13:45 41.97130 -6.41363 35098 ft 427 kts 214°
2026-04-18 13:46 41.91976 -6.45344 35102 ft 428 kts 214°
2026-04-18 13:46 41.86812 -6.49321 35106 ft 428 kts 214°
2026-04-18 13:47 41.81653 -6.53284 35105 ft 427 kts 214°
2026-04-18 13:47 41.76495 -6.57240 35085 ft 427 kts 214°
2026-04-18 13:48 41.71328 -6.61201 35078 ft 428 kts 214°
2026-04-18 13:48 41.66521 -6.65798 35078 ft 424 kts 221°
2026-04-18 13:49 41.61858 -6.70566 35072 ft 425 kts 221°
2026-04-18 13:49 41.57123 -6.75372 35066 ft 425 kts 221°
2026-04-18 13:50 41.52445 -6.80113 35063 ft 425 kts 221°
2026-04-18 13:50 41.47732 -6.84896 35067 ft 426 kts 221°
2026-04-18 13:51 41.43024 -6.89669 35078 ft 425 kts 221°
2026-04-18 13:51 41.38318 -6.94431 35083 ft 424 kts 221°
2026-04-18 13:52 41.33600 -6.99189 35060 ft 425 kts 220°
2026-04-18 13:52 41.28876 -7.03933 35059 ft 426 kts 220°
2026-04-18 13:53 41.24174 -7.08657 35061 ft 426 kts 220°
2026-04-18 13:53 41.19439 -7.13409 35060 ft 426 kts 220°
2026-04-18 13:54 41.14702 -7.18154 35072 ft 427 kts 220°
2026-04-18 13:54 41.09953 -7.22899 35065 ft 427 kts 220°
2026-04-18 13:55 41.05204 -7.27635 35070 ft 428 kts 220°
2026-04-18 13:55 41.00452 -7.32375 35078 ft 427 kts 220°
2026-04-18 13:56 40.95695 -7.37103 35072 ft 427 kts 220°
2026-04-18 13:56 40.90935 -7.41814 35075 ft 427 kts 220°
2026-04-18 13:57 40.86172 -7.46525 35071 ft 428 kts 219°
2026-04-18 13:57 40.81411 -7.51241 35069 ft 428 kts 219°
2026-04-18 13:58 40.76635 -7.55949 35068 ft 429 kts 219°
2026-04-18 13:58 40.71856 -7.60652 35070 ft 429 kts 219°
2026-04-18 13:59 40.67079 -7.65349 35074 ft 428 kts 219°
2026-04-18 13:59 40.62327 -7.70011 35061 ft 429 kts 219°
2026-04-18 14:00 40.57534 -7.74698 35067 ft 430 kts 219°
2026-04-18 14:00 40.52735 -7.79383 35066 ft 430 kts 219°
2026-04-18 14:01 40.47934 -7.84065 35069 ft 430 kts 219°
2026-04-18 14:01 40.43136 -7.88750 35069 ft 430 kts 219°
2026-04-18 14:02 40.38338 -7.93425 35071 ft 430 kts 219°
2026-04-18 14:02 40.33521 -7.98096 34800 ft 433 kts 219°
2026-04-18 14:03 40.31098 -8.00439 34184 ft 433 kts 218°
2026-04-18 14:03 40.28666 -8.02787 33459 ft 435 kts 218°
2026-04-18 14:03 40.26225 -8.05144 32738 ft 437 kts 218°
2026-04-18 14:03 40.23775 -8.07508 32037 ft 439 kts 218°
2026-04-18 14:04 40.21316 -8.09884 31343 ft 441 kts 218°
2026-04-18 14:04 40.18848 -8.12272 30674 ft 443 kts 218°
2026-04-18 14:04 40.16361 -8.14676 29991 ft 446 kts 218°
2026-04-18 14:04 40.13860 -8.17089 29232 ft 448 kts 218°
2026-04-18 14:05 40.11339 -8.19514 28496 ft 450 kts 218°
2026-04-18 14:05 40.08820 -8.21931 27776 ft 449 kts 218°
2026-04-18 14:05 40.06310 -8.24334 27072 ft 446 kts 217°
2026-04-18 14:05 40.03818 -8.26719 26385 ft 442 kts 217°
2026-04-18 14:06 40.01350 -8.29083 25724 ft 439 kts 217°
2026-04-18 14:06 39.99657 -8.30513 25289 ft 437 kts 210°
2026-04-18 14:06 39.96941 -8.32282 24648 ft 435 kts 207°
2026-04-18 14:06 39.94233 -8.34000 24010 ft 431 kts 207°
2026-04-18 14:07 39.91547 -8.35703 23342 ft 428 kts 207°
2026-04-18 14:07 39.88877 -8.37395 22620 ft 425 kts 207°
2026-04-18 14:07 39.86229 -8.39075 21909 ft 421 kts 207°
2026-04-18 14:07 39.83619 -8.40732 21198 ft 410 kts 207°
2026-04-18 14:08 39.78721 -8.43845 19847 ft 376 kts 207°
2026-04-18 14:08 39.76408 -8.45312 19218 ft 362 kts 207°
2026-04-18 14:08 39.74177 -8.46722 18585 ft 351 kts 207°
2026-04-18 14:09 39.72011 -8.48087 17901 ft 342 kts 206°
2026-04-18 14:09 39.69889 -8.49427 17210 ft 337 kts 206°
2026-04-18 14:09 39.67788 -8.50756 16513 ft 334 kts 206°
2026-04-18 14:09 39.65709 -8.52069 15836 ft 331 kts 206°
2026-04-18 14:10 39.63650 -8.53368 15214 ft 328 kts 206°
2026-04-18 14:10 39.61605 -8.54658 14608 ft 325 kts 206°
2026-04-18 14:10 39.59576 -8.55934 14228 ft 324 kts 206°
2026-04-18 14:10 39.57576 -8.57192 13953 ft 323 kts 206°
2026-04-18 14:11 39.55561 -8.58463 13643 ft 322 kts 206°
2026-04-18 14:11 39.53553 -8.59726 13334 ft 320 kts 206°
2026-04-18 14:11 39.51552 -8.60979 13036 ft 319 kts 206°
2026-04-18 14:11 39.49561 -8.62227 12716 ft 317 kts 206°
2026-04-18 14:12 39.47583 -8.63471 12402 ft 315 kts 206°
2026-04-18 14:12 39.45617 -8.64706 12111 ft 314 kts 205°
2026-04-18 14:12 39.43658 -8.65938 11807 ft 312 kts 205°
2026-04-18 14:12 39.41708 -8.67161 11508 ft 311 kts 205°
2026-04-18 14:13 39.39768 -8.68375 11218 ft 309 kts 205°
2026-04-18 14:13 39.37835 -8.69583 10928 ft 308 kts 205°
2026-04-18 14:13 39.35910 -8.70786 10642 ft 306 kts 205°
2026-04-18 14:13 39.33995 -8.71983 10357 ft 305 kts 205°
2026-04-18 14:14 39.32081 -8.73179 10072 ft 305 kts 205°
2026-04-18 14:14 39.30266 -8.74591 9765 ft 304 kts 213°
2026-04-18 14:14 39.28514 -8.76115 9460 ft 303 kts 213°
2026-04-18 14:14 39.26766 -8.77635 9150 ft 302 kts 212°
2026-04-18 14:15 39.25028 -8.79145 8836 ft 299 kts 213°
2026-04-18 14:15 39.23345 -8.80604 8548 ft 292 kts 212°
2026-04-18 14:15 39.21677 -8.82049 8244 ft 286 kts 212°
2026-04-18 14:15 39.20041 -8.83465 8031 ft 279 kts 212°
2026-04-18 14:16 39.18633 -8.85161 7994 ft 280 kts 233°
2026-04-18 14:16 39.17615 -8.87317 7998 ft 282 kts 238°
2026-04-18 14:16 39.16659 -8.89521 8002 ft 282 kts 239°
2026-04-18 14:16 39.15708 -8.91731 7996 ft 282 kts 239°
2026-04-18 14:17 39.14643 -8.93841 8000 ft 280 kts 227°
2026-04-18 14:17 39.13327 -8.95693 8005 ft 280 kts 224°
2026-04-18 14:17 39.10626 -8.99303 8007 ft 280 kts 224°
2026-04-18 14:18 39.07920 -9.02913 8004 ft 280 kts 224°
2026-04-18 14:18 39.06568 -9.04714 8006 ft 280 kts 224°
2026-04-18 14:19 39.03864 -9.08315 8000 ft 280 kts 224°
2026-04-18 14:19 39.02507 -9.10119 8009 ft 281 kts 224°
2026-04-18 14:19 38.99434 -9.13088 8011 ft 278 kts 201°
2026-04-18 14:20 38.97651 -9.14051 8010 ft 278 kts 201°
2026-04-18 14:20 38.95866 -9.15008 8010 ft 278 kts 201°
2026-04-18 14:20 38.94078 -9.15962 8010 ft 278 kts 201°
2026-04-18 14:20 38.92289 -9.16914 8009 ft 278 kts 201°
2026-04-18 14:21 38.90522 -9.17854 8007 ft 279 kts 201°
2026-04-18 14:21 38.88728 -9.18807 8009 ft 279 kts 201°
2026-04-18 14:21 38.86936 -9.19760 7883 ft 279 kts 201°
2026-04-18 14:22 38.83371 -9.21662 7390 ft 276 kts 200°
2026-04-18 14:22 38.81600 -9.22608 7151 ft 276 kts 201°
2026-04-18 14:22 38.78063 -9.24490 6670 ft 275 kts 201°
2026-04-18 14:23 38.76295 -9.25427 6430 ft 274 kts 200°
2026-04-18 14:23 38.72781 -9.27292 5927 ft 271 kts 201°
2026-04-18 14:23 38.71040 -9.28217 5675 ft 271 kts 201°
2026-04-18 14:24 38.67547 -9.29983 5185 ft 269 kts 200°
2026-04-18 14:24 38.65809 -9.30856 4947 ft 268 kts 200°
2026-04-18 14:24 38.64077 -9.31725 4697 ft 267 kts 200°